Flag for Monaco Weather past 2 weeks in Monaco, Monaco

Now
77 °F

Broken clouds.


Feels Like: 79 °F
Forecast: 65 / 74 °F
Wind: 7 mph from Southeast

Location: Nice Airport

Current Time: Jul 28, 2014 at 4:43:05 PM

Latest Report: Jul 28, 2014 at 4:00 PM


Visibility: N/A

Pressure: 29.83 "Hg

Humidity: 74%

Dew point: 68 °F

Location of MonacoLocation

Historic Weather in Monaco — Graph

°F

Monaco temperature yesterday

Maximum temperature yesterday: 79 °F (at 10:00 AM)
Minimum temperature yesterday: 70 °F (at 1:30 AM)
Average temperature yesterday: 75 °F

Past Weeks' High & Low Weather Summary

 TemperatureHumidityPressure
High82 °F (Jul 20, 12:00 PM)89% (Jul 19, 12:30 AM)30.09 "Hg (Jul 19, 12:30 AM)
Low66 °F (Jul 21, 5:00 PM)39% (Jul 17, 9:30 AM)29.74 "Hg (Jul 21, 9:00 AM)
Average75 °F69%29.92 "Hg
* Reported Jul 13 3:00 PM — Jul 28 3:30 PM, Monaco, Weather by CustomWeather, © 2014

Note: Actual official high and low records may vary slightly from our data, if they occured in-between our weather recording intervals... More about our weather records

Advertising

Monaco weather history for previous 24 hours

 ConditionsComfort  
Time TempWeatherWind HumidityBarometerVisibility
3:30 PM
Jul 28
77 °FPartly sunny.8 mph74%29.83 "HgN/A
3:00 PM79 °FPartly sunny.9 mph70%29.83 "HgN/A
2:30 PM79 °FPartly sunny.9 mph70%29.83 "HgN/A
2:00 PM79 °FScattered clouds.9 mph70%29.83 "HgN/A
1:30 PM79 °FPartly sunny.10 mph74%29.83 "HgN/A
1:00 PM77 °FPartly sunny.9 mph74%29.86 "HgN/A
12:30 PM79 °FPartly sunny.9 mph74%29.86 "HgN/A
12:00 PM79 °FPartly sunny.10 mph74%29.86 "HgN/A
11:30 AM77 °FScattered clouds.10 mph79%29.86 "HgN/A
11:00 AM77 °FScattered clouds.10 mph74%29.86 "HgN/A
10:30 AM77 °FScattered clouds.9 mph79%29.86 "HgN/A
10:00 AM77 °FScattered clouds.10 mph74%29.86 "HgN/A
9:30 AM77 °FScattered clouds.9 mph74%29.86 "HgN/A
9:00 AM77 °FScattered clouds.3 mph65%29.86 "HgN/A
8:30 AM77 °FScattered clouds.3 mph61%29.86 "HgN/A
8:00 AM75 °FScattered clouds.6 mph61%29.86 "HgN/A
7:30 AM73 °FPassing clouds.7 mph65%29.86 "HgN/A
7:00 AM72 °FPassing clouds.7 mph69%29.86 "HgN/A
6:30 AM72 °FPassing clouds.5 mph69%29.86 "HgN/A
6:00 AM72 °FPassing clouds.3 mph69%29.86 "HgN/A
5:30 AM72 °FPassing clouds.6 mph69%29.86 "HgN/A
5:00 AM72 °FClear.5 mph69%29.86 "Hg10 mi
4:30 AM72 °FPassing clouds.5 mph69%29.86 "HgN/A
4:00 AM73 °FClear.6 mph65%29.86 "Hg10 mi
3:30 AM73 °FClear.6 mph65%29.86 "Hg10 mi
3:00 AM73 °FClear.5 mph65%29.86 "Hg10 mi
2:30 AM73 °FClear.7 mph69%29.86 "Hg10 mi
2:00 AM73 °FClear.5 mph65%29.89 "Hg10 mi
1:30 AM73 °FPassing clouds.3 mph69%29.89 "HgN/A
1:00 AM73 °FClear.5 mph69%29.89 "Hg10 mi
12:30 AM73 °FClear.7 mph69%29.89 "Hg10 mi
12:00 AM75 °FClear.7 mph69%29.89 "Hg10 mi
11:30 PM
Jul 27
75 °FClear.5 mph69%29.89 "Hg10 mi
11:00 PM75 °FPassing clouds.5 mph69%29.89 "HgN/A
10:30 PM75 °FClear.3 mph69%29.89 "Hg10 mi
10:00 PM75 °FClear.2 mph69%29.89 "Hg10 mi
9:30 PM77 °FPassing clouds.1 mph69%29.86 "HgN/A
9:00 PM77 °FPassing clouds.2 mph69%29.86 "HgN/A
8:30 PM77 °FPassing clouds.2 mph65%29.86 "HgN/A
8:00 PM77 °FPassing clouds.2 mph65%29.86 "HgN/A
7:30 PM79 °FPartly sunny.5 mph65%29.86 "HgN/A
7:00 PM77 °FScattered clouds.6 mph69%29.86 "HgN/A
6:21 PM79 °FScattered clouds.6 mph65%29.86 "HgN/A
6:00 PM79 °FPassing clouds.7 mph70%29.89 "HgN/A
5:30 PM79 °FPassing clouds.7 mph70%29.89 "HgN/A
5:00 PM79 °FPassing clouds.7 mph65%29.89 "HgN/A
4:30 PM79 °FPassing clouds.8 mph65%29.89 "HgN/A
4:00 PM79 °FPassing clouds.8 mph70%29.89 "HgN/A
Weather by CustomWeather, © 2014

See weather overviewHow to use our weather pages